#timestamp,LO_Frequency,Hit,StdDev 
1620028815.8,286047004.4,N
1620028835.6,286047004.4,N
1620028855.5,286047002.8,N
1620028875.3,286047001.4,N
1620028895.2,286047005.6,Y
1620028915.9,286047002.2,P
1620028935.7,286047002.5,P
1620028955.6,286047004.3,P
1620028975.4,286047001.4,N
1620028995.2,286047002.9,Y
1620029015.1,286046998.7,P
1620029016.0,286046998.7,N
1620029035.8,286046998.9,N
1620029055.7,286046999.3,N
1620029075.5,286046999.6,N
1620029095.3,286047002.3,N
1620029115.2,286047002.3,N
1620029135.0,286046998.2,N
1620029135.9,286046998.2,N
1620029155.7,286046999.4,N
1620029175.6,286046997.2,N
1620029195.4,286046996.7,N
1620029215.3,286046997.3,N
1620029235.1,286046996.9,N
1620029236.0,286046996.9,N
1620029255.8,286046999.4,N
1620029275.7,286046996.7,N
1620029295.5,286046999.4,N
1620029315.3,286047000.9,N
1620029335.2,286046998.7,N
1620029355.0,286046997.0,N
1620029355.9,286046997.0,N
1620029375.8,286046999.1,N
1620029395.6,286046998.5,N
1620029415.4,286047002.8,N
1620029435.3,286047003.6,N
1620029455.1,286047003.4,N
1620029475.8,286047001.7,N
1620029495.7,286046999.7,N
1620029515.5,286047003.7,N
1620029535.4,286047002.9,N
1620029555.2,286047006.0,N
1620029575.0,286047003.5,N
1620029575.9,286047003.5,N
1620029595.8,286047003.5,N
1620029615.6,286047001.7,N
1620029635.4,286046999.8,N
1620029655.3,286047000.0,N
1620029675.1,286047000.8,N
1620029695.9,286047002.5,N
1620029715.7,286047001.8,N
1620029735.5,286047005.1,N
1620029755.4,286047003.9,N
1620029775.2,286047003.6,N
1620029795.0,286047002.3,N
1620029795.9,286047002.3,N
1620029815.8,286047002.6,N
1620029835.6,286047002.0,N
1620029855.5,286047003.2,N
1620029875.3,286047003.4,N
1620029895.1,286047002.9,N
1620029915.9,286047003.2,N
1620029935.7,286047004.0,N
1620029955.5,286047001.9,N
1620029975.4,286047004.0,N
1620029995.2,286047003.6,N
1620030015.1,286047005.6,Y
1620030016.0,286047005.6,P
1620030035.8,286047002.3,N
1620030055.6,286047004.4,N
1620030075.5,286047000.1,N
1620030095.3,286047000.4,N
1620030115.1,286046998.4,N
1620030135.9,286046995.5,N
1620030155.7,286046997.1,N
1620030175.6,286046998.2,N
1620030195.4,286046998.2,N
1620030215.2,286047000.9,N
1620030235.1,286046999.1,N
1620030236.0,286046999.1,N
1620030255.8,286046995.5,N
1620030275.7,286046995.9,N
1620030295.5,286046996.2,N
1620030315.3,286046996.0,N
1620030335.2,286046995.4,N
1620030355.0,286046996.5,N
1620030355.9,286046996.5,N
1620030375.8,286046996.7,N
1620030395.6,286046996.1,N
1620030415.4,286046993.4,N
1620030435.3,286046995.4,N
1620030455.1,286046996.3,N
1620030475.8,286046993.9,N
1620030495.7,286046993.3,N
1620030515.5,286046995.0,N
1620030535.4,286046996.5,N
1620030555.2,286046996.7,N
1620030575.0,286046995.9,N
1620030575.9,286046995.9,N
1620030595.8,286046996.0,N
1620030615.6,286046995.1,N
1620030635.5,286046997.8,N
1620030655.3,286046997.4,N
1620030675.1,286046995.1,Y
1620030695.9,286047000.5,P
1620030715.7,286047002.7,N
1620030735.6,286047002.7,N
1620030755.4,286047000.5,N
1620030775.2,286047000.8,N
1620030795.1,286046998.3,N
1620030796.0,286046998.3,N
1620030815.8,286046998.1,N
1620030835.7,286047000.7,N
1620030855.5,286047002.6,N
1620030875.3,286047003.9,N
1620030895.2,286047007.3,Y
1620030915.0,286047006.7,P
1620030915.9,286047006.7,N
1620030935.8,286047006.0,N
1620030955.6,286047004.1,N
1620030975.4,286047001.7,N
1620030995.3,286047001.6,N
1620031015.1,286047004.2,N
1620031035.8,286046999.7,N
1620031055.7,286047001.6,N
1620031075.5,286047002.3,N
1620031095.4,286047004.0,N
1620031115.2,286047007.3,Y
1620031135.0,286047004.2,P
1620031135.9,286047004.2,P
1620031155.8,286046999.7,N
1620031175.6,286046998.6,N
1620031195.4,286047000.6,N
1620031215.3,286046997.3,N
1620031235.1,286046997.7,N
1620031255.9,286046996.8,N
1620031275.7,286046999.3,N
1620031295.5,286046996.6,N
1620031315.4,286046999.3,N
1620031335.2,286046998.1,N
1620031355.0,286047000.8,N
1620031355.9,286047000.8,N
1620031375.8,286046998.3,N
1620031395.6,286047000.2,N
1620031415.5,286047001.9,N
1620031435.3,286047002.6,N
1620031455.1,286047003.7,N
1620031475.9,286046999.8,N
1620031495.7,286047001.0,N
1620031515.5,286046998.2,N
1620031535.4,286046998.4,N
1620031555.2,286046996.8,N
1620031575.1,286046998.7,N
1620031576.0,286046998.7,N
1620031595.8,286046998.3,N
1620031615.6,286046999.0,N
1620031635.5,286046996.5,N
1620031655.3,286046994.9,N
1620031675.1,286046995.4,N
1620031695.9,286046997.4,N
1620031715.7,286046999.0,N
1620031735.6,286046999.5,N
1620031755.4,286046999.6,N
1620031775.2,286046999.6,N
1620031795.1,286046996.8,N
1620031796.0,286046996.8,N
1620031815.8,286046997.0,N
1620031835.6,286046997.5,N
1620031855.5,286046997.1,N
1620031875.3,286046998.1,N
1620031895.2,286046998.9,N
1620031915.9,286046998.5,N
1620031935.7,286046997.7,N
1620031955.6,286046996.9,N
1620031975.4,286047000.6,N
1620031995.2,286046999.8,N
1620032015.1,286047002.6,N
1620032016.0,286047002.6,N
1620032035.8,286046999.8,N
1620032055.7,286046996.6,N
1620032075.5,286046997.3,N
1620032095.3,286046996.7,N
1620032115.2,286047002.4,N
1620032135.0,286047001.4,N
1620032135.9,286047001.4,N
1620032155.7,286047000.9,N
1620032175.6,286046999.1,N
1620032195.4,286046998.1,N
1620032215.3,286046999.8,N
1620032235.1,286046999.2,N
1620032236.0,286046999.2,N
1620032255.8,286046997.9,N
1620032275.7,286046997.5,N
1620032295.5,286046997.8,N
1620032315.3,286046995.4,N
1620032335.2,286047000.4,N
1620032355.0,286047001.4,N
1620032355.9,286047001.4,N
1620032375.8,286046999.8,N
1620032395.6,286046998.3,N
